Location: Unspecified
(34.4950°S, 58.5160°W)
Time: 21:02:16
(UTC+00:00)

Cosmos 1680 Rocket - Visible Passes

Search period start: 16 March 2026 00:00
Search period end: 26 March 2026 00:00
Orbit: 755 x 777 km, 74.1° (Epoch: 16 March)

Date Brightness Start Highest point End Pass type
(mag) Time Alt. Az. Time Alt. Az. Time Alt. Az.
16 Mar 4.3 07:30:11 42° S 07:30:11 42° S 07:33:40 10° SSE visible
17 Mar 5.4 06:53:39 26° SSE 06:53:39 26° SSE 06:55:57 10° SSE visible
17 Mar 5.4 08:33:53 13° SW 08:33:53 13° SW 08:35:48 10° SSW visible
18 Mar 6.2 06:17:04 14° SE 06:17:04 14° SE 06:17:52 10° SE visible
18 Mar 5.3 07:57:19 19° SSW 07:57:19 19° SSW 07:59:25 10° S visible
19 Mar 5.5 07:20:40 19° S 07:20:40 19° S 07:22:17 10° S visible
20 Mar 6.0 06:43:58 15° SSE 06:43:58 15° SSE 06:44:49 10° SSE visible
